[[{"header":{"parameterUnit":"m.s-1","parameterCategory":1,"la1":30.2991,"la2":30.254,"lo1":-89.0895,"lo2":-89.0444,"dy":0.0017,"dx":0.0017,"nx":28,"ny":28,"refTime":"2024-08-14T03:00:00:Z","depth":0,"parameterNumber":2,"parameterNumberName":"U-component_of_WINDS"},"data":[0,0,0,0,0,0,0,0,0,0,0,0,0,0,0,0,0,0,0,0,0,0,0,0,0,0,0,0,0,0,0,0,0,0,0,0,0,0,0,0,0,0,0,0,0,0,0,0,0,0,0,0,0,0,0,0,0,0,0.926,0.9261,0,0.9334,0.9335,0.9336,0.9323,0.9322,0.932,0.9319,0.9401,0.9404,0.9408,0,0,0,0,0,0,0,0,0,0,0,0,0,0.9113,0.9116,0.926,0.9261,0.9262,0.9334,0.9335,0.9336,0.9323,0.9322,0.932,0.9318,0.94,0.9404,0.9408,0,0,0,0,0,0,0,0,0,0,0,0,0,0.9181,0.9117,0.926,0.9264,0.9265,0.9334,0.9335,0.9336,0.9324,0.9322,0.932,0.9318,0.9399,0.9404,0.9409,0.948,0,0,0.9424,0.9426,0,0,0,0,0,0,0,0,0.9177,0.9187,0.9262,0.9264,0.9265,0.9317,0.9313,0.9385,0.9324,0.9302,0.9319,0.9317,0.9375,0.9382,0.9401,0.9484,0.9487,0.9425,0.9428,0.943,0.9431,0,0,0,0,0,0,0,0.9173,0.9183,0.929,0.9264,0.9265,0.9264,0.9272,0.9327,0.9349,0.9303,0.9302,0.9311,0.9376,0.9396,0.9402,0.9489,0.9425,0.9429,0.9432,0.9434,0.9636,0.9638,0,0,0,0,0,0,0.9166,0.9179,0.9287,0.9292,0.9215,0.9268,0.9277,0.9303,0.9348,0.9353,0.9313,0.931,0.9388,0.9396,0.9405,0.9493,0.943,0.9435,0.9438,0.9634,0.9636,0.9639,0,0,0,0,0,0,0.9163,0.9175,0.9284,0.9235,0.9249,0.9273,0.9302,0.9305,0.9325,0.9355,0.936,0.9329,0.9387,0.9398,0.9461,0.9496,0.9437,0.9442,0.9631,0.9634,0.9638,0.9668,0,0,0,0,0,0,0.9158,0.9174,0.92,0.9236,0.9252,0.9337,0.9304,0.9308,0.9333,0.9331,0.9371,0.9376,0.9386,0.9454,0.9466,0.9502,0.9446,0.9628,0.9632,0.9636,0.9664,0.9672,0.9679,0,0,0,0,0,0.9153,0.9207,0.9202,0.9215,0.9284,0.9339,0.9349,0.9357,0.9336,0.9363,0.9383,0.9375,0.9489,0.946,0.9475,0.9512,0.9626,0.9631,0.9636,0.9661,0.9671,0.9679,0,0,0,0,0,0,0.9177,0.9212,0.9206,0.9273,0.9303,0.9337,0.9372,0.9367,0.9405,0.9401,0.9412,0.9421,0.9486,0.9505,0.9472,0.9584,0.9555,0.9563,0.9569,0.9579,0.9586,0.9581,0.945,0,0,0,0,0,0.9189,0.9229,0.9258,0.9314,0.9329,0.9348,0.9372,0.9376,0.9408,0.9422,0.9446,0.9479,0.9523,0.9552,0.9593,0.9666,0.9676,0.9699,0.9707,0.9712,0.972,0.9762,0.9773,0.9656,0.9656,0.9655,0,0,0.9216,0.924,0.9265,0.932,0.9343,0.9387,0.9359,0.9405,0.9438,0.9429,0.9491,0.9509,0.9548,0.9617,0.9648,0.9635,0.9754,0.9719,0.9723,0.9728,0.9768,0.9779,0.9789,0.9659,0.9658,0.9658,0,0,0.9288,0.9309,0.9359,0.9383,0.9419,0.9431,0.9442,0.9477,0.9489,0.955,0.9545,0.9585,0.9659,0.9687,0.9711,0.9793,0.9788,0.9806,0.9846,0.9886,0.9896,0.9904,0.9935,0.9946,0.9814,0.9814,0.9814,0,0.9318,0.938,0.9385,0.9432,0.9458,0.9449,0.9501,0.9525,0.9573,0.9592,0.9575,0.9669,0.9694,0.977,0.979,0.9809,0.9825,0.9803,0.9893,0.9902,0.991,0.994,0.9951,0.9816,0.9815,0.9815,0.9815,0,0.9416,0.946,0.9496,0.9541,0.957,0.9619,0.9634,0.9663,0.9664,0.9678,0.9741,0.9771,0.9819,0.9837,0.9839,0.9914,0.9904,0.9891,0.9862,0.9923,0.9951,0.9962,0.9819,0.9818,0.9817,0.9817,0,0,0.9506,0.9552,0.9566,0.9587,0.9625,0.9661,0.971,0.9755,0.9781,0.9814,0.9858,0.9921,0.9908,0.9935,0.9941,0.9976,1.0041,0.9958,0.9959,0.9974,1.0127,1.0139,1.0152,1.0037,1.0039,1.0041,1.0125,0,0.9582,0.9668,0.9674,0.9752,0.9793,0.9786,0.983,0.986,0.9874,0.9913,0.993,0.9975,0.9954,0.9971,1.0005,1.0026,1.0072,1.002,1.008,1.0082,1.0072,1.0166,1.0178,1.0256,1.0136,1.0137,1.0139,0,0.9683,0.9718,0.98,0.9834,0.9851,0.989,0.9932,0.9969,1.0003,1.0012,1.0042,1.0042,1.0095,1.0063,1.0138,1.0102,1.0127,1.014,1.0144,1.0151,1.0115,1.0178,1.028,1.0293,1.0156,1.0155,1.0153,0,0.9742,0.981,0.9868,0.9886,0.9926,0.9954,0.9972,1.0004,1.0031,1.0069,1.0087,1.0131,1.0155,1.019,1.0203,1.0178,1.0278,1.0246,1.0288,1.0288,1.0311,1.031,1.042,1.0324,1.0324,1.0324,1.0323,0,0.9828,0.9879,0.9895,0.9931,0.9988,0.9995,1.0053,1.007,1.0098,1.0139,1.0136,1.0174,1.0188,1.023,1.024,1.0301,1.0312,1.0322,1.0325,1.0323,1.0322,1.0341,1.0337,1.0327,1.0326,1.0325,1.0325,0,0.9905,0.9917,0.998,1.0013,1.0022,1.0063,1.0092,1.0128,1.0141,1.0193,1.0205,1.0228,1.0276,1.0292,1.0351,1.0359,1.043,1.0427,1.0418,1.0419,1.0461,1.0457,1.0589,1.0607,1.0497,1.0498,1.0499,0,0.996,0.9998,1.0035,1.0061,1.008,1.0122,1.0149,1.0158,1.0187,1.0228,1.026,1.0307,1.0346,1.0425,1.0447,1.0493,1.0492,1.0535,1.0499,1.0497,1.0495,1.0493,1.0498,1.0543,1.0544,1.0545,1.0545,0,1.0056,1.006,1.0099,1.0139,1.0172,1.0205,1.0237,1.0259,1.0272,1.0305,1.0354,1.0384,1.0444,1.0492,1.0538,1.0559,1.0556,1.0556,1.0569,1.0569,1.0563,1.0568,1.0439,1.0554,1.0553,1.0552,1.0552,1.0552,1.0125,1.0159,1.019,1.0233,1.0258,1.0288,1.0323,1.034,1.0381,1.0429,1.0432,1.0485,1.052,1.0581,1.0604,1.0648,1.0636,1.0653,1.0658,1.0663,1.0667,1.0554,1.0656,1.0656,1.0656,1.0655,1.0655,0,1.0223,1.0242,1.0281,1.0326,1.036,1.0351,1.0386,1.0416,1.0462,1.0493,1.0531,1.0588,1.0635,1.066,1.0708,1.0737,1.0737,1.075,1.0749,1.0754,1.0674,1.0659,1.0749,1.0749,1.0749,1.0749,1.0749,1.0749,1.0278,1.0336,1.0344,1.0415,1.0435,1.0485,1.0506,1.0535,1.056,1.0623,1.0661,1.0676,1.0706,1.0755,1.0799,1.0805,1.0824,1.0838,1.0843,1.0769,1.0759,1.075,1.0736,1.0841,1.0841,1.092,1.0921,1.0921]},{"header":{"parameterUnit":"m.s-1","parameterCategory":1,"la1":30.2991,"la2":30.254,"lo1":-89.0895,"lo2":-89.0444,"dy":0.0017,"dx":0.0017,"nx":28,"ny":28,"refTime":"2024-08-14T03:00:00:Z","depth":0,"parameterNumber":3,"parameterNumberName":"V-component_of_WINDS"},"data":[0,0,0,0,0,0,0,0,0,0,0,0,0,0,0,0,0,0,0,0,0,0,0,0,0,0,0,0,0,0,0,0,0,0,0,0,0,0,0,0,0,0,0,0,0,0,0,0,0,0,0,0,0,0,0,0,0,0,1.8039,1.8039,0,1.8048,1.8048,1.8048,1.8035,1.8034,1.8034,1.8034,1.804,1.804,1.8041,0,0,0,0,0,0,0,0,0,0,0,0,0,1.8003,1.8004,1.8039,1.8039,1.8039,1.8048,1.8048,1.8048,1.8035,1.8034,1.8034,1.8033,1.804,1.804,1.8041,0,0,0,0,0,0,0,0,0,0,0,0,0,1.8016,1.8004,1.8039,1.8033,1.8033,1.8048,1.8048,1.8048,1.8035,1.8034,1.8034,1.8033,1.8039,1.804,1.8041,1.8061,0,0,1.8044,1.8044,0,0,0,0,0,0,0,0,1.8015,1.8017,1.8034,1.8034,1.8033,1.804,1.8038,1.8052,1.8035,1.8034,1.8034,1.8033,1.804,1.8041,1.8044,1.8061,1.8061,1.8044,1.8045,1.8045,1.8045,0,0,0,0,0,0,0,1.8014,1.8017,1.8042,1.8034,1.8034,1.8028,1.803,1.8041,1.8041,1.8034,1.8033,1.8035,1.804,1.8043,1.8044,1.8061,1.8044,1.8045,1.8045,1.8046,1.8089,1.809,0,0,0,0,0,0,1.8015,1.8016,1.8042,1.8043,1.8022,1.803,1.8031,1.8038,1.8041,1.8041,1.8035,1.8034,1.8042,1.8043,1.8044,1.8064,1.8045,1.8046,1.8046,1.8089,1.809,1.809,0,0,0,0,0,0,1.8014,1.8017,1.8042,1.8029,1.8032,1.8031,1.8039,1.8039,1.8042,1.8042,1.8041,1.8039,1.8042,1.8043,1.8056,1.8064,1.8046,1.8047,1.8088,1.8089,1.809,1.8106,0,0,0,0,0,0,1.8013,1.8017,1.8026,1.8029,1.8032,1.8055,1.804,1.804,1.8044,1.8043,1.8045,1.8045,1.8041,1.8055,1.8057,1.8065,1.8048,1.8087,1.8089,1.809,1.8105,1.8107,1.811,0,0,0,0,0,1.8012,1.8031,1.8027,1.803,1.8044,1.8056,1.8057,1.8054,1.8045,1.8053,1.8052,1.8045,1.8063,1.8056,1.8058,1.8067,1.8087,1.8088,1.809,1.8104,1.8107,1.811,0,0,0,0,0,0,1.8028,1.8031,1.8027,1.8048,1.8051,1.8053,1.8063,1.8058,1.8063,1.8061,1.8056,1.8056,1.8069,1.807,1.8062,1.8084,1.8073,1.8075,1.8083,1.8086,1.8089,1.8088,1.8049,0,0,0,0,0,1.8035,1.8045,1.8046,1.8064,1.8066,1.8064,1.8069,1.8066,1.8069,1.8071,1.807,1.8073,1.8078,1.8082,1.8088,1.8105,1.8103,1.8111,1.8114,1.8116,1.8117,1.8122,1.8125,1.8095,1.8095,1.8095,0,0,1.8047,1.805,1.8057,1.8068,1.807,1.8079,1.8066,1.8077,1.8082,1.8072,1.8083,1.8083,1.8085,1.8098,1.8104,1.8099,1.8125,1.8118,1.8119,1.812,1.8124,1.8127,1.8129,1.8096,1.8096,1.8095,0,0,1.8074,1.8079,1.8093,1.8095,1.8099,1.8097,1.81,1.8102,1.8101,1.8113,1.8104,1.8109,1.8121,1.8121,1.8122,1.8145,1.8138,1.8147,1.816,1.8164,1.8167,1.8169,1.8174,1.8177,1.8149,1.8149,1.8149,0,1.809,1.8104,1.81,1.811,1.8113,1.8104,1.8116,1.8118,1.8123,1.8124,1.8119,1.813,1.8131,1.8142,1.8148,1.815,1.8151,1.8147,1.8167,1.8169,1.8171,1.8176,1.8178,1.815,1.8149,1.8149,1.8149,0,1.812,1.813,1.814,1.8145,1.8149,1.816,1.8156,1.816,1.8155,1.8153,1.8162,1.8163,1.8166,1.8169,1.8165,1.8179,1.8175,1.8168,1.8158,1.8175,1.8179,1.8181,1.8151,1.8151,1.815,1.815,0,0,1.816,1.816,1.8163,1.8163,1.8165,1.8172,1.818,1.8184,1.8187,1.819,1.8195,1.8203,1.8195,1.8197,1.8193,1.8197,1.8211,1.8189,1.8189,1.8191,1.8223,1.8227,1.8229,1.8206,1.8206,1.8207,1.8222,0,1.8184,1.8201,1.8196,1.8211,1.8218,1.8207,1.8214,1.8215,1.8212,1.8216,1.8212,1.8217,1.8208,1.8208,1.8213,1.8209,1.8217,1.8208,1.8209,1.8209,1.8207,1.8232,1.8237,1.8251,1.8224,1.8224,1.8224,0,1.8216,1.8219,1.8235,1.8232,1.8235,1.8242,1.8242,1.8247,1.8246,1.8243,1.8243,1.8237,1.8242,1.8232,1.8238,1.8231,1.8231,1.8229,1.8229,1.8228,1.8217,1.823,1.8256,1.8258,1.8227,1.8227,1.8227,0,1.8239,1.8247,1.8257,1.8258,1.8256,1.826,1.8259,1.8257,1.8259,1.8259,1.8259,1.826,1.826,1.826,1.8253,1.8246,1.8258,1.8248,1.8254,1.8254,1.8257,1.8256,1.8282,1.8259,1.8259,1.8259,1.8259,0,1.8266,1.8275,1.8267,1.8273,1.8282,1.8275,1.8284,1.8281,1.8279,1.8282,1.8274,1.8276,1.8267,1.8268,1.8263,1.8266,1.8267,1.8263,1.8261,1.8263,1.8264,1.8262,1.8261,1.826,1.826,1.826,1.8259,0,1.8293,1.8288,1.8298,1.8294,1.8293,1.83,1.8295,1.8299,1.8295,1.8299,1.83,1.8292,1.8293,1.8286,1.8285,1.8281,1.8287,1.8284,1.8287,1.8286,1.8291,1.829,1.8316,1.8318,1.8296,1.8296,1.8296,0,1.831,1.8316,1.8313,1.8315,1.8314,1.8317,1.8318,1.8311,1.8311,1.8309,1.8312,1.8312,1.8312,1.8313,1.8306,1.8305,1.8301,1.8309,1.83,1.8301,1.8298,1.8297,1.8297,1.8311,1.8311,1.8312,1.8312,0,1.8338,1.8335,1.8337,1.8338,1.8339,1.8339,1.8338,1.834,1.8331,1.8332,1.8333,1.8332,1.8331,1.833,1.8327,1.8323,1.8315,1.8315,1.8316,1.8317,1.8318,1.8315,1.8291,1.8314,1.8314,1.8314,1.8314,1.8314,1.8359,1.8363,1.8361,1.8362,1.8361,1.836,1.8362,1.8358,1.8359,1.8357,1.8352,1.8353,1.8348,1.8343,1.834,1.8339,1.8334,1.8336,1.8337,1.8337,1.8337,1.8319,1.8339,1.8339,1.8338,1.8338,1.8338,0,1.8385,1.8382,1.8384,1.8383,1.8383,1.8376,1.8374,1.8375,1.8376,1.8373,1.8372,1.8371,1.8369,1.8362,1.8359,1.8359,1.8355,1.8359,1.8358,1.8357,1.8342,1.8341,1.8362,1.8362,1.8362,1.8362,1.8362,1.8362,1.8399,1.8404,1.84,1.8404,1.8401,1.8402,1.8401,1.8399,1.8396,1.8395,1.8394,1.839,1.8384,1.838,1.8377,1.8375,1.8373,1.8377,1.8374,1.836,1.8358,1.8356,1.8354,1.8377,1.8377,1.8387,1.8388,1.8388]}]]